Flag for Equatorial Guinea Weather past 2 weeks in Malabo, Equatorial Guinea

Now
75 °F

Passing clouds.


Feels Like: 74 °F
Forecast: 74 / 80 °F
Wind: 5 mph from West

Location: Malabo/Fernando Poo

Current Time: Sep 15, 2014 at 4:03:41 AM

Latest Report: Sep 15, 2014 at 3:00 AM


Visibility: N/A

Pressure: 29.92 "Hg

Humidity: 94%

Dew point: 73 °F

Location of MalaboLocation

Historic Weather in Malabo — Graph

°F

Malabo temperature yesterday

Maximum temperature yesterday: 82 °F (at 10:00 AM)
Minimum temperature yesterday: 72 °F (at 12:00 AM)
Average temperature yesterday: 77 °F

Past Weeks' High & Low Weather Summary

 TemperatureHumidityPressure
High84 °F (Sep 4, 11:00 AM)100% (Sep 3, 7:00 AM)30.04 "Hg (Sep 3, 7:00 AM)
Low72 °F (Sep 3, 7:00 AM)70% (Sep 4, 10:00 AM)29.83 "Hg (Sep 5, 4:00 PM)
Average77 °F87%29.93 "Hg
* Reported Aug 31 3:00 AM — Sep 15 3:00 AM, Malabo, Weather by CustomWeather, © 2014

Note: Actual official high and low records may vary slightly from our data, if they occured in-between our weather recording intervals... More about our weather records

Advertising

Malabo weather history for September 2, 2014

 ConditionsComfort  
Time TempWeatherWind HumidityBarometerVisibility
1:00 AM
Sep 2
75 °FPassing clouds.10 mph83%29.95 "HgN/A
2:00 AM75 °FPartly cloudy.10 mph83%29.92 "HgN/A
3:00 AM75 °FMild.17 mph89%29.92 "HgN/A
4:00 AM75 °FPassing clouds.8 mph89%29.92 "HgN/A
9:00 AM73 °FStrong thunderstorms. Partly sunny.15 mph94%30.01 "Hg1 mi
10:00 AM73 °FThunderstorms. Broken clouds.12 mph94%30.01 "Hg2 mi
11:00 AM73 °FThunderstorms. Broken clouds.12 mph94%29.98 "Hg4 mi
12:00 PM77 °FThunderstorms. Broken clouds.12 mph83%29.98 "HgN/A
1:00 PM81 °FPartly sunny.16 mph74%29.95 "HgN/A
2:00 PM81 °FBroken clouds.16 mph74%29.92 "HgN/A
3:00 PM79 °FBroken clouds.15 mph84%29.89 "HgN/A
4:00 PM81 °FBroken clouds.18 mph74%29.89 "HgN/A
5:00 PM81 °FBroken clouds.13 mph74%29.89 "HgN/A
6:00 PM77 °FBroken clouds.10 mph83%29.92 "HgN/A
7:00 PM77 °FPassing clouds.9 mph83%29.95 "HgN/A
8:00 PM77 °FPassing clouds.9 mph79%29.95 "HgN/A
9:00 PM75 °FThunderstorms. Passing clouds.6 mph89%29.98 "HgN/A
10:00 PM75 °FThunderstorms. Passing clouds.2 mph89%29.98 "HgN/A
11:00 PM75 °FPassing clouds.3 mph89%29.98 "HgN/A
Weather by CustomWeather, © 2014

See weather overviewHow to use our weather pages